Location: ??????
(42.0089°N, 44.3281°E)
Time: 18:11:34
(UTC+00:00)

Cosmos 1980 Rocket - Pass Details

Date: 24 October 2021
Orbit: 828 x 851 km, 71.0° (Epoch: 01 December)

Event Time Altitude Azimuth Distance (km) Brightness Sun altitude
Rises 15:11:46 0° 239° (WSW) 3,386 6.6 -12.6°
Reaches altitude 10° 15:14:37 10° 252° (WSW) 2,460 6.0 -13.1°
Maximum altitude 15:19:14 26° 307° (NW) 1,630 4.3 -14.0°
Drops below altitude 10° 15:23:55 10° 2° (N) 2,482 4.6 -14.8°
Sets 15:26:49 0° 16° (NNE) 3,424 5.2 -15.4°
